Time,TemperatureF,DewpointF,PressureIn,WindDirection,WindDirectionDegrees,WindSpeedMPH,WindSpeedGustMPH,Humidity,HourlyPrecipIn,Conditions,Clouds,dailyrainin,SoftwareType,DateUTC
2013-02-07 00:09:00,43.5,38.1,30.05,North,0,1.0,3.0,81,0.00,,,0.00,Wunderground v.1.15,2013-02-07 08:09:00,
2013-02-07 00:19:00,43.6,38.5,30.05,North,0,1.0,3.0,82,0.00,,,0.00,Wunderground v.1.15,2013-02-07 08:19:00,
2013-02-07 00:24:00,43.5,38.7,30.05,North,0,1.0,3.0,83,0.00,,,0.00,Wunderground v.1.15,2013-02-07 08:24:00,
2013-02-07 00:34:00,43.3,38.2,30.05,North,0,0.0,2.0,82,0.00,,,0.00,Wunderground v.1.15,2013-02-07 08:34:00,
2013-02-07 00:39:00,43.3,37.2,30.05,North,0,1.0,1.0,79,0.00,,,0.00,Wunderground v.1.15,2013-02-07 08:39:00,
2013-02-07 00:49:00,43.5,37.1,30.05,North,0,0.0,3.0,78,0.00,,,0.00,Wunderground v.1.15,2013-02-07 08:49:00,
2013-02-07 00:54:00,43.6,36.9,30.03,North,0,0.0,3.0,77,0.00,,,0.00,Wunderground v.1.15,2013-02-07 08:54:00,
2013-02-07 01:04:00,43.3,37.9,30.03,North,0,0.0,3.0,81,0.00,,,0.00,Wunderground v.1.15,2013-02-07 09:04:00,
2013-02-07 01:09:00,42.8,37.7,30.04,North,0,0.0,3.0,82,0.00,,,0.00,Wunderground v.1.15,2013-02-07 09:09:00,
2013-02-07 01:19:00,41.9,36.5,30.04,North,0,0.0,2.0,81,0.00,,,0.00,Wunderground v.1.15,2013-02-07 09:19:00,
2013-02-07 01:29:00,41.1,36.3,30.04,North,0,0.0,2.0,83,0.00,,,0.00,Wunderground v.1.15,2013-02-07 09:29:00,
2013-02-07 01:34:00,40.8,36.6,30.04,North,0,0.0,2.0,85,0.00,,,0.00,Wunderground v.1.15,2013-02-07 09:34:00,
2013-02-07 01:44:00,40.2,36.3,30.04,North,0,0.0,2.0,86,0.00,,,0.00,Wunderground v.1.15,2013-02-07 09:44:00,
2013-02-07 01:54:00,39.8,36.2,30.04,North,0,0.0,0.0,87,0.00,,,0.00,Wunderground v.1.15,2013-02-07 09:54:00,
2013-02-07 02:04:00,39.5,36.0,30.04,North,0,0.0,0.0,87,0.00,,,0.00,Wunderground v.1.15,2013-02-07 10:04:00,
2013-02-07 02:09:00,39.3,35.8,30.04,North,0,0.0,0.0,87,0.00,,,0.00,Wunderground v.1.15,2013-02-07 10:09:00,
2013-02-07 02:19:00,38.9,34.8,30.04,North,0,0.0,0.0,85,0.00,,,0.00,Wunderground v.1.15,2013-02-07 10:19:00,
2013-02-07 02:24:00,38.8,35.0,30.04,North,0,0.0,0.0,86,0.00,,,0.00,Wunderground v.1.15,2013-02-07 10:24:00,
2013-02-07 02:34:00,38.6,34.8,30.04,North,0,0.0,0.0,86,0.00,,,0.00,Wunderground v.1.15,2013-02-07 10:34:00,
2013-02-07 02:39:00,38.3,34.5,30.04,North,0,0.0,0.0,86,0.00,,,0.00,Wunderground v.1.15,2013-02-07 10:39:00,
2013-02-07 02:44:00,38.3,34.8,30.04,North,0,0.0,0.0,87,0.00,,,0.00,Wunderground v.1.15,2013-02-07 10:44:00,
2013-02-07 02:54:00,38.5,34.4,30.04,North,0,0.0,1.0,85,0.00,,,0.00,Wunderground v.1.15,2013-02-07 10:54:00,
2013-02-07 03:04:00,38.5,35.0,30.04,North,0,0.0,0.0,87,0.00,,,0.00,Wunderground v.1.15,2013-02-07 11:04:00,
2013-02-07 03:14:00,38.2,35.0,30.04,North,0,0.0,2.0,88,0.00,,,0.00,Wunderground v.1.15,2013-02-07 11:14:00,
2013-02-07 03:19:00,38.0,34.8,30.04,North,0,0.0,2.0,88,0.00,,,0.00,Wunderground v.1.15,2013-02-07 11:19:00,
2013-02-07 03:29:00,37.9,34.9,30.05,North,0,0.0,2.0,89,0.00,,,0.00,Wunderground v.1.15,2013-02-07 11:29:00,
2013-02-07 03:39:00,37.8,34.8,30.04,North,0,0.0,2.0,89,0.00,,,0.00,Wunderground v.1.15,2013-02-07 11:39:00,
2013-02-07 03:44:00,37.9,35.5,30.04,North,0,0.0,2.0,91,0.00,,,0.00,Wunderground v.1.15,2013-02-07 11:44:00,
2013-02-07 03:54:00,38.2,35.8,30.03,North,0,0.0,1.0,91,0.00,,,0.00,Wunderground v.1.15,2013-02-07 11:54:00,
2013-02-07 04:04:00,38.8,36.9,30.03,North,0,0.0,1.0,93,0.00,,,0.00,Wunderground v.1.15,2013-02-07 12:04:00,
2013-02-07 04:09:00,38.9,37.0,30.03,North,0,0.0,1.0,93,0.00,,,0.00,Wunderground v.1.15,2013-02-07 12:09:00,
2013-02-07 04:19:00,38.0,35.3,30.03,North,0,2.0,2.0,90,0.00,,,0.00,Wunderground v.1.15,2013-02-07 12:19:00,
2013-02-07 04:29:00,37.2,35.1,30.04,North,0,1.0,2.0,92,0.00,,,0.00,Wunderground v.1.15,2013-02-07 12:29:00,
2013-02-07 04:34:00,37.3,35.2,30.04,North,0,0.0,2.0,92,0.00,,,0.00,Wunderground v.1.15,2013-02-07 12:34:00,
2013-02-07 04:44:00,37.6,35.2,30.04,North,0,0.0,5.0,91,0.00,,,0.00,Wunderground v.1.15,2013-02-07 12:44:00,
2013-02-07 04:54:00,37.6,35.2,30.03,North,0,0.0,5.0,91,0.00,,,0.00,Wunderground v.1.15,2013-02-07 12:54:00,
2013-02-07 04:59:00,37.6,34.9,30.03,North,0,0.0,5.0,90,0.00,,,0.00,Wunderground v.1.15,2013-02-07 12:59:00,
2013-02-07 05:09:00,37.2,34.5,30.03,North,0,0.0,5.0,90,0.00,,,0.00,Wunderground v.1.15,2013-02-07 13:09:00,
2013-02-07 05:14:00,37.2,34.5,30.03,North,0,0.0,5.0,90,0.00,,,0.00,Wunderground v.1.15,2013-02-07 13:14:00,
2013-02-07 05:24:00,37.5,35.1,30.03,North,0,0.0,2.0,91,0.00,,,0.00,Wunderground v.1.15,2013-02-07 13:24:00,
2013-02-07 05:34:00,37.5,34.6,30.03,North,0,0.0,2.0,89,0.00,,,0.00,Wunderground v.1.15,2013-02-07 13:34:00,
2013-02-07 05:39:00,37.3,34.4,30.03,North,0,0.0,2.0,89,0.00,,,0.00,Wunderground v.1.15,2013-02-07 13:39:00,
2013-02-07 05:49:00,37.2,34.5,30.03,North,0,0.0,1.0,90,0.00,,,0.00,Wunderground v.1.15,2013-02-07 13:49:00,
2013-02-07 05:59:00,37.3,34.6,30.03,North,0,0.0,1.0,90,0.00,,,0.00,Wunderground v.1.15,2013-02-07 13:59:00,
2013-02-07 06:04:00,37.2,34.3,30.03,North,0,0.0,1.0,89,0.00,,,0.00,Wunderground v.1.15,2013-02-07 14:04:00,
2013-02-07 06:14:00,37.0,34.3,30.03,North,0,0.0,1.0,90,0.00,,,0.00,Wunderground v.1.15,2013-02-07 14:14:00,
2013-02-07 06:24:00,37.3,34.6,30.03,North,0,0.0,0.0,90,0.00,,,0.00,Wunderground v.1.15,2013-02-07 14:24:00,
2013-02-07 06:29:00,37.6,34.7,30.03,North,0,0.0,0.0,89,0.00,,,0.00,Wunderground v.1.15,2013-02-07 14:29:00,
2013-02-07 06:39:00,37.5,34.3,30.03,North,0,0.0,0.0,88,0.00,,,0.00,Wunderground v.1.15,2013-02-07 14:39:00,
2013-02-07 06:49:00,37.5,34.6,30.03,North,0,0.0,1.0,89,0.00,,,0.00,Wunderground v.1.15,2013-02-07 14:49:00,
2013-02-07 06:54:00,37.5,34.3,30.03,North,0,0.0,1.0,88,0.00,,,0.00,Wunderground v.1.15,2013-02-07 14:54:00,
2013-02-07 07:04:00,37.9,34.7,30.03,North,0,0.0,1.0,88,0.00,,,0.00,Wunderground v.1.15,2013-02-07 15:04:00,
2013-02-07 07:09:00,38.2,34.7,30.03,North,0,0.0,1.0,87,0.00,,,0.00,Wunderground v.1.15,2013-02-07 15:09:00,
2013-02-07 07:19:00,38.5,35.5,30.03,North,0,0.0,1.0,89,0.00,,,0.00,Wunderground v.1.15,2013-02-07 15:19:00,
2013-02-07 07:24:00,38.8,35.8,30.03,North,0,0.0,1.0,89,0.00,,,0.00,Wunderground v.1.15,2013-02-07 15:24:00,
2013-02-07 07:34:00,39.3,36.6,30.03,North,0,0.0,0.0,90,0.00,,,0.00,Wunderground v.1.15,2013-02-07 15:34:00,
2013-02-07 07:44:00,40.1,37.4,30.03,North,0,0.0,1.0,90,0.00,,,0.00,Wunderground v.1.15,2013-02-07 15:44:00,
2013-02-07 07:49:00,40.3,37.6,30.03,North,0,0.0,1.0,90,0.00,,,0.00,Wunderground v.1.15,2013-02-07 15:49:00,
2013-02-07 07:59:00,41.1,37.5,30.03,North,0,0.0,1.0,87,0.00,,,0.00,Wunderground v.1.15,2013-02-07 15:59:00,
2013-02-07 08:04:00,41.8,38.5,30.03,North,0,0.0,1.0,88,0.00,,,0.00,Wunderground v.1.15,2013-02-07 16:04:00,
2013-02-07 08:14:00,44.3,39.8,30.03,North,0,0.0,1.0,84,0.00,,,0.00,Wunderground v.1.15,2013-02-07 16:14:00,
2013-02-07 08:24:00,46.2,40.4,30.03,North,0,0.0,0.0,80,0.00,,,0.00,Wunderground v.1.15,2013-02-07 16:24:00,
2013-02-07 08:29:00,47.0,40.8,30.03,North,0,0.0,0.0,79,0.00,,,0.00,Wunderground v.1.15,2013-02-07 16:29:00,
2013-02-07 08:39:00,48.0,40.1,30.03,North,0,0.0,0.0,74,0.00,,,0.00,Wunderground v.1.15,2013-02-07 16:39:00,
2013-02-07 08:44:00,48.3,40.4,30.03,North,0,0.0,2.0,74,0.00,,,0.00,Wunderground v.1.15,2013-02-07 16:44:00,
2013-02-07 08:54:00,48.3,40.4,30.03,NNE,24,0.0,2.0,74,0.00,,,0.00,Wunderground v.1.15,2013-02-07 16:54:00,
2013-02-07 08:59:00,48.2,41.0,30.03,NNE,24,0.0,2.0,76,0.00,,,0.00,Wunderground v.1.15,2013-02-07 16:59:00,
2013-02-07 09:09:00,48.2,41.0,30.03,NNE,24,0.0,2.0,76,0.00,,,0.00,Wunderground v.1.15,2013-02-07 17:09:00,
2013-02-07 09:19:00,47.9,41.0,30.03,NNE,24,1.0,2.0,77,0.00,,,0.00,Wunderground v.1.15,2013-02-07 17:19:00,
2013-02-07 09:29:00,47.3,40.8,30.04,NNE,32,1.0,2.0,78,0.00,,,0.00,Wunderground v.1.15,2013-02-07 17:29:00,
2013-02-07 09:34:00,47.3,40.8,30.04,NE,34,1.0,2.0,78,0.00,,,0.00,Wunderground v.1.15,2013-02-07 17:34:00,
2013-02-07 09:44:00,46.8,40.3,30.04,NE,35,1.0,3.0,78,0.00,,,0.00,Wunderground v.1.15,2013-02-07 17:44:00,
2013-02-07 09:54:00,47.0,40.2,30.04,East,88,1.0,3.0,77,0.00,,,0.00,Wunderground v.1.15,2013-02-07 17:54:00,
2013-02-07 09:59:00,46.8,40.3,30.04,East,86,1.0,3.0,78,0.00,,,0.00,Wunderground v.1.15,2013-02-07 17:59:00,
2013-02-07 10:09:00,47.1,40.9,30.03,East,99,1.0,3.0,79,0.00,,,0.00,Wunderground v.1.15,2013-02-07 18:09:00,
2013-02-07 10:14:00,47.4,41.2,30.03,East,99,1.0,3.0,79,0.00,,,0.00,Wunderground v.1.15,2013-02-07 18:14:00,
2013-02-07 10:24:00,47.9,41.4,30.03,ESE,103,1.0,3.0,78,0.00,,,0.00,Wunderground v.1.15,2013-02-07 18:24:00,
2013-02-07 10:34:00,48.0,41.8,30.03,ESE,103,1.0,3.0,79,0.00,,,0.00,Wunderground v.1.15,2013-02-07 18:34:00,
2013-02-07 10:39:00,48.0,41.8,30.03,ESE,109,1.0,3.0,79,0.00,,,0.00,Wunderground v.1.15,2013-02-07 18:39:00,
2013-02-07 10:49:00,47.9,42.3,30.03,ESE,109,0.0,3.0,81,0.00,,,0.00,Wunderground v.1.15,2013-02-07 18:49:00,
2013-02-07 10:59:00,47.6,42.7,30.04,ESE,109,1.0,1.0,83,0.00,,,0.00,Wunderground v.1.15,2013-02-07 18:59:00,
2013-02-07 11:04:00,47.4,43.1,30.04,ESE,109,1.0,3.0,85,0.00,,,0.01,Wunderground v.1.15,2013-02-07 19:04:00,
2013-02-07 11:14:00,47.1,43.7,30.04,ESE,109,1.0,3.0,88,0.00,,,0.01,Wunderground v.1.15,2013-02-07 19:14:00,
2013-02-07 11:19:00,47.0,43.3,30.04,ESE,109,1.0,1.0,87,0.00,,,0.01,Wunderground v.1.15,2013-02-07 19:19:00,
2013-02-07 11:29:00,46.8,43.7,30.03,ESE,109,1.0,3.0,89,0.00,,,0.01,Wunderground v.1.15,2013-02-07 19:29:00,
2013-02-07 11:39:00,47.1,44.3,30.03,ESE,109,1.0,3.0,90,0.00,,,0.01,Wunderground v.1.15,2013-02-07 19:39:00,
2013-02-07 11:44:00,47.3,44.2,30.03,ESE,109,1.0,3.0,89,0.00,,,0.01,Wunderground v.1.15,2013-02-07 19:44:00,
2013-02-07 11:54:00,47.3,44.2,30.02,ESE,109,1.0,3.0,89,0.00,,,0.01,Wunderground v.1.15,2013-02-07 19:54:00,
2013-02-07 12:04:00,46.8,44.0,30.02,ESE,106,1.0,3.0,90,0.00,,,0.01,Wunderground v.1.15,2013-02-07 20:04:00,
2013-02-07 12:14:00,46.4,43.3,30.01,ESE,106,1.0,3.0,89,0.00,,,0.01,Wunderground v.1.15,2013-02-07 20:14:00,
2013-02-07 12:19:00,46.1,43.3,30.01,ESE,106,1.0,1.0,90,0.00,,,0.01,Wunderground v.1.15,2013-02-07 20:19:00,
2013-02-07 12:29:00,46.2,43.4,30.01,ESE,106,0.0,3.0,90,0.00,,,0.01,Wunderground v.1.15,2013-02-07 20:29:00,
2013-02-07 12:34:00,46.5,44.0,30.01,ESE,106,0.0,3.0,91,0.00,,,0.01,Wunderground v.1.15,2013-02-07 20:34:00,
2013-02-07 12:44:00,47.4,44.6,30.00,East,97,0.0,3.0,90,0.00,,,0.01,Wunderground v.1.15,2013-02-07 20:44:00,
2013-02-07 12:54:00,48.9,44.6,29.99,North,0,0.0,3.0,85,0.00,,,0.01,Wunderground v.1.15,2013-02-07 20:54:00,
2013-02-07 13:04:00,50.2,43.6,29.99,North,0,2.0,3.0,78,0.00,,,0.01,Wunderground v.1.15,2013-02-07 21:04:00,
2013-02-07 13:14:00,51.1,44.5,29.98,NNW,343,1.0,7.0,78,0.00,,,0.01,Wunderground v.1.15,2013-02-07 21:14:00,
2013-02-07 13:19:00,51.9,43.5,29.98,NNE,17,1.0,7.0,73,0.00,,,0.01,Wunderground v.1.15,2013-02-07 21:19:00,
2013-02-07 13:29:00,51.7,43.7,29.98,NNW,346,2.0,2.0,74,0.00,,,0.01,Wunderground v.1.15,2013-02-07 21:29:00,
2013-02-07 13:34:00,52.0,43.3,29.98,North,352,2.0,5.0,72,0.00,,,0.01,Wunderground v.1.15,2013-02-07 21:34:00,
2013-02-07 13:44:00,51.6,42.1,29.98,North,0,2.0,7.0,70,0.00,,,0.01,Wunderground v.1.15,2013-02-07 21:44:00,
2013-02-07 13:54:00,50.7,40.5,29.97,North,0,2.0,7.0,68,0.00,,,0.01,Wunderground v.1.15,2013-02-07 21:54:00,
2013-02-07 13:59:00,50.4,40.2,29.97,NW,315,2.0,7.0,68,0.00,,,0.01,Wunderground v.1.15,2013-02-07 21:59:00,
2013-02-07 14:09:00,49.4,40.0,29.97,NNW,333,2.0,7.0,70,0.00,,,0.01,Wunderground v.1.15,2013-02-07 22:09:00,
2013-02-07 14:14:00,49.4,41.1,29.97,NNW,343,1.0,7.0,73,0.00,,,0.01,Wunderground v.1.15,2013-02-07 22:14:00,
2013-02-07 14:24:00,51.0,40.8,29.96,NE,49,1.0,6.0,68,0.00,,,0.01,Wunderground v.1.15,2013-02-07 22:24:00,
2013-02-07 14:34:00,52.8,41.7,29.96,NE,41,1.0,3.0,66,0.00,,,0.01,Wunderground v.1.15,2013-02-07 22:34:00,
2013-02-07 14:39:00,53.3,42.6,29.96,NE,42,1.0,6.0,67,0.00,,,0.01,Wunderground v.1.15,2013-02-07 22:39:00,
2013-02-07 14:49:00,53.8,40.7,29.96,North,359,2.0,2.0,61,0.00,,,0.01,Wunderground v.1.15,2013-02-07 22:49:00,
2013-02-07 14:59:00,53.9,40.3,29.95,SSE,157,2.0,2.0,60,0.00,,,0.01,Wunderground v.1.15,2013-02-07 22:59:00,
2013-02-07 15:09:00,53.5,37.3,29.95,North,0,2.0,2.0,54,0.00,,,0.01,Wunderground v.1.15,2013-02-07 23:09:00,
2013-02-07 15:14:00,53.1,37.8,29.95,North,0,2.0,7.0,56,0.00,,,0.01,Wunderground v.1.15,2013-02-07 23:14:00,
2013-02-07 15:24:00,51.7,36.9,29.95,North,7,2.0,7.0,57,0.00,,,0.01,Wunderground v.1.15,2013-02-07 23:24:00,
2013-02-07 15:34:00,50.7,36.5,29.95,SE,130,3.0,7.0,58,0.00,,,0.01,Wunderground v.1.15,2013-02-07 23:34:00,
2013-02-07 15:39:00,50.4,37.9,29.95,NW,319,2.0,2.0,62,0.00,,,0.01,Wunderground v.1.15,2013-02-07 23:39:00,
2013-02-07 15:49:00,49.4,36.1,29.95,NNE,28,2.0,7.0,60,0.00,,,0.01,Wunderground v.1.15,2013-02-07 23:49:00,
2013-02-07 15:54:00,49.1,35.8,29.95,NE,34,2.0,7.0,60,0.00,,,0.01,Wunderground v.1.15,2013-02-07 23:54:00,
2013-02-07 16:04:00,48.8,33.3,29.95,NNW,340,2.0,7.0,55,0.00,,,0.01,Wunderground v.1.15,2013-02-08 00:04:00,
2013-02-07 16:14:00,48.2,33.7,29.95,North,0,1.0,7.0,57,0.00,,,0.01,Wunderground v.1.15,2013-02-08 00:14:00,
2013-02-07 16:19:00,47.9,33.4,29.95,NNW,335,2.0,7.0,57,0.00,,,0.01,Wunderground v.1.15,2013-02-08 00:19:00,
2013-02-07 16:29:00,47.3,34.5,29.96,North,353,2.0,2.0,61,0.00,,,0.01,Wunderground v.1.15,2013-02-08 00:29:00,
2013-02-07 16:34:00,47.0,35.0,29.96,NNW,342,1.0,7.0,63,0.00,,,0.01,Wunderground v.1.15,2013-02-08 00:34:00,
2013-02-07 16:44:00,46.1,35.4,29.96,West,280,1.0,7.0,66,0.00,,,0.01,Wunderground v.1.15,2013-02-08 00:44:00,
2013-02-07 16:54:00,45.7,36.1,29.96,NW,313,1.0,6.0,69,0.00,,,0.01,Wunderground v.1.15,2013-02-08 00:54:00,
2013-02-07 17:04:00,45.4,36.2,29.96,NNW,340,2.0,6.0,70,0.00,,,0.01,Wunderground v.1.15,2013-02-08 01:04:00,
2013-02-07 17:14:00,45.1,35.9,29.96,NNE,18,1.0,6.0,70,0.00,,,0.01,Wunderground v.1.15,2013-02-08 01:14:00,
2013-02-07 17:19:00,44.9,36.1,29.96,North,1,1.0,6.0,71,0.00,,,0.01,Wunderground v.1.15,2013-02-08 01:19:00,
2013-02-07 17:29:00,44.3,35.5,29.96,North,1,1.0,1.0,71,0.00,,,0.01,Wunderground v.1.15,2013-02-08 01:29:00,
2013-02-07 17:34:00,43.9,35.5,29.96,North,1,1.0,6.0,72,0.00,,,0.01,Wunderground v.1.15,2013-02-08 01:34:00,
2013-02-07 17:44:00,42.9,35.2,29.96,North,1,0.0,3.0,74,0.00,,,0.01,Wunderground v.1.15,2013-02-08 01:44:00,
2013-02-07 17:54:00,41.8,34.5,29.97,North,1,0.0,3.0,75,0.00,,,0.01,Wunderground v.1.15,2013-02-08 01:54:00,
2013-02-07 17:59:00,41.3,34.3,29.97,North,1,0.0,3.0,76,0.00,,,0.01,Wunderground v.1.15,2013-02-08 01:59:00,
2013-02-07 18:09:00,40.6,34.0,29.96,North,1,0.0,3.0,77,0.00,,,0.01,Wunderground v.1.15,2013-02-08 02:09:00,
2013-02-07 18:19:00,40.1,34.1,29.96,North,1,0.0,2.0,79,0.00,,,0.01,Wunderground v.1.15,2013-02-08 02:19:00,
2013-02-07 18:29:00,39.9,33.6,29.96,North,1,0.0,2.0,78,0.00,,,0.01,Wunderground v.1.15,2013-02-08 02:29:00,
2013-02-07 18:39:00,39.9,33.9,29.96,North,1,0.0,2.0,79,0.00,,,0.01,Wunderground v.1.15,2013-02-08 02:39:00,
2013-02-07 18:44:00,39.9,34.2,29.96,North,1,0.0,2.0,80,0.00,,,0.01,Wunderground v.1.15,2013-02-08 02:44:00,
2013-02-07 18:54:00,40.1,34.4,29.96,North,1,0.0,1.0,80,0.00,,,0.01,Wunderground v.1.15,2013-02-08 02:54:00,
2013-02-07 18:59:00,39.9,34.2,29.95,North,1,0.0,1.0,80,0.00,,,0.01,Wunderground v.1.15,2013-02-08 02:59:00,
2013-02-07 19:09:00,39.3,34.3,29.95,North,1,0.0,1.0,82,0.00,,,0.01,Wunderground v.1.15,2013-02-08 03:09:00,
2013-02-07 19:14:00,39.2,34.5,29.96,North,1,0.0,2.0,83,0.00,,,0.01,Wunderground v.1.15,2013-02-08 03:14:00,
2013-02-07 19:24:00,39.1,34.4,29.95,North,1,0.0,2.0,83,0.00,,,0.01,Wunderground v.1.15,2013-02-08 03:24:00,
2013-02-07 19:34:00,39.1,34.7,29.95,North,1,0.0,2.0,84,0.00,,,0.01,Wunderground v.1.15,2013-02-08 03:34:00,
2013-02-07 19:44:00,38.6,34.5,29.94,North,1,0.0,2.0,85,0.00,,,0.01,Wunderground v.1.15,2013-02-08 03:44:00,
2013-02-07 19:54:00,38.3,34.5,29.94,North,1,0.0,0.0,86,0.00,,,0.01,Wunderground v.1.15,2013-02-08 03:54:00,
2013-02-07 20:04:00,38.2,34.7,29.94,North,1,0.0,0.0,87,0.00,,,0.01,Wunderground v.1.15,2013-02-08 04:04:00,
2013-02-07 20:09:00,38.2,34.7,29.94,North,1,0.0,0.0,87,0.00,,,0.01,Wunderground v.1.15,2013-02-08 04:09:00,
2013-02-07 20:19:00,38.0,34.5,29.94,North,1,0.0,1.0,87,0.00,,,0.01,Wunderground v.1.15,2013-02-08 04:19:00,
2013-02-07 20:24:00,38.0,34.5,29.93,North,1,0.0,1.0,87,0.00,,,0.01,Wunderground v.1.15,2013-02-08 04:24:00,
2013-02-07 20:34:00,37.9,34.1,29.93,North,1,0.0,1.0,86,0.00,,,0.01,Wunderground v.1.15,2013-02-08 04:34:00,
2013-02-07 20:39:00,38.0,34.2,29.93,North,1,0.0,1.0,86,0.00,,,0.01,Wunderground v.1.15,2013-02-08 04:39:00,
2013-02-07 20:49:00,38.3,34.5,29.93,North,1,0.0,0.0,86,0.00,,,0.01,Wunderground v.1.15,2013-02-08 04:49:00,
2013-02-07 20:54:00,38.6,34.8,29.93,North,1,0.0,0.0,86,0.00,,,0.01,Wunderground v.1.15,2013-02-08 04:54:00,
2013-02-07 21:04:00,39.1,35.3,29.93,North,1,0.0,0.0,86,0.00,,,0.01,Wunderground v.1.15,2013-02-08 05:04:00,
2013-02-07 21:09:00,39.5,35.4,29.93,North,1,0.0,0.0,85,0.00,,,0.01,Wunderground v.1.15,2013-02-08 05:09:00,
2013-02-07 21:14:00,39.8,35.4,29.93,North,1,0.0,1.0,84,0.00,,,0.01,Wunderground v.1.15,2013-02-08 05:14:00,
2013-02-07 21:19:00,39.9,35.5,29.93,North,1,0.0,1.0,84,0.00,,,0.01,Wunderground v.1.15,2013-02-08 05:19:00,
2013-02-07 21:24:00,40.2,35.8,29.92,North,1,0.0,1.0,84,0.00,,,0.01,Wunderground v.1.15,2013-02-08 05:24:00,
2013-02-07 21:34:00,40.3,36.4,29.92,NW,311,1.0,3.0,86,0.11,,,0.03,Wunderground v.1.15,2013-02-08 05:34:00,
2013-02-07 21:44:00,39.5,36.5,29.93,NNW,342,2.0,8.0,89,0.13,,,0.05,Wunderground v.1.15,2013-02-08 05:44:00,
2013-02-07 21:54:00,39.1,36.7,29.92,North,359,1.0,2.0,91,0.09,,,0.06,Wunderground v.1.15,2013-02-08 05:54:00,
2013-02-07 22:04:00,38.9,36.5,29.92,North,359,0.0,8.0,91,0.06,,,0.07,Wunderground v.1.15,2013-02-08 06:04:00,
2013-02-07 22:09:00,38.8,36.4,29.92,North,359,0.0,8.0,91,0.04,,,0.07,Wunderground v.1.15,2013-02-08 06:09:00,
2013-02-07 22:19:00,38.2,36.1,29.92,North,359,1.0,5.0,92,0.00,,,0.07,Wunderground v.1.15,2013-02-08 06:19:00,
2013-02-07 22:24:00,38.0,35.9,29.92,North,359,1.0,5.0,92,0.00,,,0.07,Wunderground v.1.15,2013-02-08 06:24:00,
2013-02-07 22:34:00,38.0,36.2,29.92,North,359,0.0,5.0,93,0.00,,,0.07,Wunderground v.1.15,2013-02-08 06:34:00,
2013-02-07 22:44:00,38.0,36.2,29.91,North,359,0.0,5.0,93,0.00,,,0.07,Wunderground v.1.15,2013-02-08 06:44:00,
2013-02-07 22:49:00,38.2,36.6,29.91,North,359,0.0,3.0,94,0.00,,,0.07,Wunderground v.1.15,2013-02-08 06:49:00,
2013-02-07 22:59:00,38.5,36.9,29.91,North,359,0.0,3.0,94,0.00,,,0.07,Wunderground v.1.15,2013-02-08 06:59:00,
2013-02-07 23:04:00,38.5,37.2,29.91,North,359,0.0,3.0,95,0.00,,,0.07,Wunderground v.1.15,2013-02-08 07:04:00,
2013-02-07 23:14:00,38.5,37.2,29.90,North,359,0.0,3.0,95,0.00,,,0.07,Wunderground v.1.15,2013-02-08 07:14:00,
2013-02-07 23:24:00,37.8,36.2,29.90,North,359,0.0,0.0,94,0.00,,,0.07,Wunderground v.1.15,2013-02-08 07:24:00,
2013-02-07 23:29:00,37.5,35.9,29.90,North,359,0.0,0.0,94,0.00,,,0.07,Wunderground v.1.15,2013-02-08 07:29:00,
2013-02-07 23:39:00,37.2,35.6,29.89,North,359,0.0,0.0,94,0.00,,,0.07,Wunderground v.1.15,2013-02-08 07:39:00,
2013-02-07 23:44:00,36.9,35.3,29.89,North,359,0.0,0.0,94,0.00,,,0.07,Wunderground v.1.15,2013-02-08 07:44:00,
2013-02-07 23:54:00,36.3,34.7,29.89,North,359,0.0,0.0,94,0.00,,,0.07,Wunderground v.1.15,2013-02-08 07:54:00,